Location: Arleux
(50.3632°N, 2.8721°E)
Time: 04:42:24
(UTC+00:00)

Cosmos 1833 Rocket - Pass Details

Date: 15 December 2019
Orbit: 831 x 841 km, 71.0° (Epoch: 21 January)

Event Time Altitude Azimuth Distance (km) Brightness Sun altitude
Exits shadow 05:35:22 11° 342° (NNW) 2,361 4.7 -18.9°
Maximum altitude 05:40:19 38° 49° (NE) 1,264 3.9 -18.2°
Drops below altitude 10° 05:45:33 10° 117° (ESE) 2,457 6.4 -17.4°
Sets 05:48:10 0° 125° (SE) 3,389 7.2 -17.0°
